Regional Weather Roundup
Issued by NWS

Home | Current Version | Previous Version | Graphics & Text | Print | Product List | Glossary On
Versions: 1 2 3 4 5 6 7 8 9 10 11 12 13 14 15 16 17 18 19 20 21 22 23 24 25 26 27 28 29 30 31 32 33 34 35 36 37 38 39 40 41 42 43 44 45 46 47 48 49 50
000
ASUS45 KBOU 301007
RWRCO

WEATHER ROUNDUP FOR COLORADO
NATIONAL WEATHER SERVICE DENVER/BOULDER CO
400 AM MDT SAT MAY 30 2015

NOTE: "FAIR" INDICATES FEW OR NO CLOUDS BELOW 12000 FEET WITH NO
SIGNIFICANT WEATHER AND/OR OBSTRUCTIONS TO VISIBILITY.

COZ001>005-013-030-031-301100-
...NORTHWEST COLORADO...

CITY           SKY/WX    TMP DP  RH WIND       PRES   REMARKS
CRAIG          CLEAR     38  35  89 SE3       30.30R
HAYDEN         CLEAR     41  34  75 E10       30.30S
MEEKER         CLEAR     41  36  82 E3        30.30S
MOUNT WERNER   NOT AVBL
STEAMBOAT SPGS CLEAR     35  34  95 E3        30.33R
WALDEN         CLEAR     32  30  93 SE6       30.36F WCI  26
$$

COZ006>008-011-301100-
...WEST CENTRAL VALLEYS...

CITY           SKY/WX    TMP DP  RH WIND       PRES   REMARKS
GRAND JUNCTION CLEAR     52  41  66 CALM      30.19S
MONTROSE       CLEAR     48  37  65 SE9       30.26F
EAGLE          CLEAR     50  46  87 CALM      30.37S
RIFLE          CLEAR     45  38  76 CALM      30.27S
DELTA          CLEAR     49  40  69 NE7       30.24S
NUCLA          CLEAR     48  36  61 SE8       30.28S
$$

COZ017>023-064>068-301100-
...SOUTHWEST COLORADO...

CITY           SKY/WX    TMP DP  RH WIND       PRES   REMARKS
DURANGO        CLEAR     41  33  73 CALM      30.26S
CORTEZ         CLEAR     39  32  76 CALM      30.24S
PAGOSA SPRINGS CLEAR     41  31  67 CALM      30.32S
TELLURIDE      PTCLDY    39  32  73 SE6       30.41S
WOLF CREEK PAS NOT AVBL
$$

COZ009-010-012-014-032>034-037-058>063-301100-
...CENTRAL COLORADO...

CITY           SKY/WX    TMP DP  RH WIND       PRES   REMARKS
ASPEN          CLEAR     37  32  82 S7        30.35S
BUENA VISTA    CLOUDY    42  34  73 NW6       30.39F
COPPER MTN     PTCLDY    34  23  64 S8        30.51S WCI  27
BERTHOUD PASS  FAIR      27  19  74 NW17      30.52S WCI  14
COTTONWOOD PAS CLOUDY    41  36  81 SE5       30.45S
GUNNISON       CLEAR     37  28  70 CALM      30.39S
KREMMLING      CLEAR     34  32  93 CALM      30.39S
LEADVILLE      CLEAR     27  25  92 NE3       30.43F
MONARCH PASS   FOG       32  30  93 MISG      30.61S VSB<1/4
SALIDA         MOCLDY    44  39  85 CALM      30.45S
SUNLIGHT       CLEAR     37  32  81 CALM      30.49F
WILKERSON PASS FOG       32  32 100 SW7       30.51S VSB 1/2 WCI  26
$$

COZ069>075-301100-
...SAN LUIS VALLEY/SANGRE DE CRISTO MOUNTAINS...

CITY           SKY/WX    TMP DP  RH WIND       PRES   REMARKS
ALAMOSA        CLEAR     39  35  86 W7        30.33S
LA VETA PASS   FOG      N/A N/A N/A MISG      30.45S VSB 3/4
SAGUACHE       CLEAR     39  34  81 W6        30.37S
$$

COZ035-036-038>040-301100-
...NORTHERN COLORADO FRONT RANGE...

CITY           SKY/WX    TMP DP  RH WIND       PRES   REMARKS
DENVER INTL AP PTCLDY    44  41  89 S7        30.30F
DMNS CITY PARK   N/A     48  41  77 S3        30.30F
AURORA         MOCLDY    45  42  89 S5        30.31F
FRONT RANGE AP CLEAR     45  43  93 MISG      30.32S
ERIE MUNI ARPT MOCLDY    47  45  92 CALM      30.29F
BOULDER MUN AP CLOUDY    50  46  87 S3        30.30F
CENTENNIAL     MOCLDY    47  44  90 SE3       30.31F
BROOMFIELD     CLOUDY    48  43  81 S3        30.30F
FORT COLLINS   CLOUDY    48  45  87 S7        30.31F
LONGMONT       CLOUDY    53  48  83 CALM      30.31F
$$

COZ041-046-047-076>085-087-088-301100-
...PIKES PEAK/PALMER DIVIDE AND SOUTHERN FOOTHILLS...

CITY           SKY/WX    TMP DP  RH WIND       PRES   REMARKS
COLO. SPRINGS  DRIZZLE   46  45  96 S8        30.35F
A. F. ACADEMY  CLOUDY    46  46  99 S7        30.34F
ELLICOTT       PTCLDY   N/A N/A N/A NW3       30.33F
FALCON         CLOUDY    45  44  96 SW7       30.37S
FORT CARSON    CLOUDY    46  46 100 S5        30.33F
LIMON          PTCLDY    43  42  97 N7        30.31F
MONUMENT HILL  CLEAR     39  37  93 E3        30.35F
TRINIDAD       CLOUDY    49  46  90 W3        30.33F
$$

COZ042>045-048>051-090-091-301100-
...NORTHEAST COLORADO...

CITY           SKY/WX    TMP DP  RH WIND       PRES   REMARKS
GREELEY ARPT   MOCLDY    46  45  93 SE3       30.30F
AKRON          CLOUDY    47  44  90 CALM      30.31S
BURLINGTON     CLOUDY    49  46  90 N7        30.29F
WRAY           CLOUDY    47  44  88 NW5       30.31F
STERLING       CLOUDY    48  45  87 E3        30.29F
HOLYOKE        CLOUDY    48  43  81 NW5       30.30F
FORT MORGAN    PTCLDY    45  42  90 CALM      30.32S
$$

COZ086-089-092>099-301100-
...SOUTHEAST COLORADO...

CITY           SKY/WX    TMP DP  RH WIND       PRES   REMARKS
PUEBLO         CLOUDY    50  48  93 CALM      30.31F
LA JUNTA       CLOUDY    52  48  86 N7        30.29F
LAMAR          CLOUDY    50  47  89 N8        30.25F
SPRINGFIELD      N/A     49  47  93 N10       30.26R
$$


USA.gov is the U.S. government's official web portal to all federal, state and local government web resources and services.